KA2QBS Weather Reports


Display with metric or nautical units.
time (UTC)temp
F
wind
direction
speed
MPH
gust
MPH
rain 1hr
in
rain 24hr
in
rain mn
in
humidity
%
barometer
mb
20260503024521 36 270 0.0 0.0 0.00 0.00 0.00 78 1015.7
20260503023020 36 270 0.0 0.0 0.00 0.00 0.00 76 1015.6
20260503021517 37 270 0.0 1.0 0.00 0.00 0.00 75 1015.6
20260503020016 37 270 0.0 0.0 0.00 0.00 0.00 74 1015.6
20260503014514 38 270 0.0 0.0 0.00 0.00 0.00 72 1015.5
20260503013013 38 270 0.0 0.0 0.00 0.00 0.00 70 1015.5
20260503011512 39 270 0.0 2.0 0.00 0.00 0.00 69 1015.5
20260503010011 40 270 0.0 1.0 0.00 0.00 0.00 68 1015.3
20260503004512 40 271 0.0 1.0 0.00 0.00 0.00 66 1015.2
20260503003009 41 271 0.0 0.0 0.00 0.00 0.00 64 1015.2
20260503001510 42 271 0.0 5.0 0.00 0.00 0.00 60 1015.0
20260503000011 43 277 0.0 7.0 0.00 0.00 0.00 57 1014.8
20260502234508 43 279 0.0 5.0 0.00 0.00 0.00 57 1014.7
20260502233008 44 273 0.0 7.0 0.00 0.00 0.00 57 1014.7
20260502231507 44 304 3.0 7.0 0.00 0.00 0.00 58 1014.6
20260502230007 44 256 1.0 9.0 0.00 0.00 0.00 58 1014.7
20260502224506 44 269 0.0 6.0 0.00 0.00 0.00 60 1014.8
20260502223015 44 284 5.0 11.0 0.00 0.00 0.00 57 1014.5
20260502221505 44 267 0.0 5.0 0.00 0.00 0.00 65 1014.6
20260502220005 44 266 0.0 6.0 0.00 0.00 0.00 64 1014.7
20260502214505 44 288 2.0 11.0 0.00 0.00 0.00 62 1014.7
20260502213004 44 285 3.0 11.0 0.00 0.00 0.00 61 1014.8
20260502211504 45 268 1.0 14.0 0.00 0.00 0.00 60 1014.7
20260502210003 45 305 0.0 6.0 0.00 0.00 0.00 60 1014.6
20260502204503 45 300 2.0 8.0 0.00 0.00 0.00 58 1014.6
20260502203002 45 287 0.0 7.0 0.00 0.00 0.00 62 1014.5
20260502201502 46 263 0.0 6.0 0.00 0.00 0.00 59 1014.7
20260502200001 46 290 2.0 6.0 0.00 0.00 0.00 60 1014.8
20260502194503 45 273 1.0 8.0 0.00 0.00 0.00 60 1015.0
20260502193101 45 280 3.0 8.0 0.00 0.00 0.00 59 1015.1
20260502191605 44 269 2.0 7.0 0.00 0.00 0.00 62 1015.3
20260502184559 45 263 4.0 9.0 0.00 0.00 0.00 60 1015.3
20260502183100 45 328 1.0 7.0 0.00 0.00 0.00 59 1015.1
20260502181605 46 272 1.0 10.0 0.00 0.00 0.00 57 1015.1
20260502163055 44 279 2.0 8.0 0.00 0.00 0.00 65 1015.0
20260502161547 44 297 0.0 11.0 0.00 0.00 0.00 65 1015.0
20260502151559 43 294 0.0 5.0 0.00 0.00 0.00 74 1015.4
20260502123032 40 293 3.0 10.0 0.00 0.00 0.00 92 1015.3
20260502121524 40 281 0.0 5.0 0.00 0.00 0.00 95 1015.3
20260502114523 40 279 0.0 0.0 0.00 0.00 0.00 96 1015.3
20260502113032 39 279 0.0 4.0 0.00 0.00 0.00 96 1015.2
20260502111523 39 279 0.0 3.0 0.00 0.00 0.00 96 1015.1
20260502110030 39 279 0.0 5.0 0.00 0.00 0.00 96 1015.0
20260502104519 39 279 0.0 4.0 0.00 0.00 0.00 96 1014.9
20260502103017 39 279 0.0 1.0 0.00 0.00 0.00 96 1014.7
20260502101516 39 279 0.0 1.0 0.00 0.00 0.00 96 1014.5
20260502091512 39 278 0.0 5.0 0.00 0.00 0.00 96 1014.2
20260502071504 39 275 0.0 3.0 0.00 0.00 0.00 95 1013.8
20260502070007 40 275 0.0 0.0 0.00 0.00 0.00 95 1013.6
20260502064502 40 275 0.0 0.0 0.00 0.00 0.00 95 1013.5
20260502063002 40 275 0.0 0.0 0.00 0.00 0.00 95 1013.9
20260502061601 40 275 0.0 2.0 0.00 0.00 0.00 95 1013.9
20260502060059 40 275 0.0 0.0 0.00 0.00 0.00 95 1013.9
20260502054603 40 275 0.0 3.0 0.00 0.00 0.00 95 1014.0
20260502053056 41 275 0.0 0.0 0.00 0.00 0.00 95 1014.0
20260502051555 41 275 0.0 0.0 0.00 0.00 0.00 95 1014.0
20260502050054 41 275 0.0 0.0 0.00 0.00 0.00 95 1014.0
20260502044556 41 275 0.0 3.0 0.00 0.00 0.00 95 1014.0
20260502043051 42 275 0.0 2.0 0.00 0.00 0.00 95 1013.9
20260502041558 42 275 0.0 2.0 0.00 0.00 0.00 94 1013.9
20260502040048 42 275 0.0 1.0 0.00 0.00 0.00 94 1013.9
20260502034547 42 275 0.0 3.0 0.00 0.00 0.00 93 1013.9
20260502033048 43 275 0.0 0.0 0.00 0.00 0.00 92 1013.8
20260502031554 43 275 0.0 0.0 0.00 0.00 0.00 91 1013.8
20260502030052 43 275 0.0 0.0 0.00 0.00 0.00 89 1014.0